Tracking 19177 objects as of 24-May-2018
HD Live streaming from Space Station
objects crossing your sky now

COSMOS 1305

Track COSMOS 1305 now!
10-day predictions
COSMOS 1305 is classified as:


NORAD ID: 12818
Int'l Code: 1981-088A
Perigee: 948.3 km
Apogee: 13,553.2 km
Inclination: 63.2 °
Period: 263.7 minutes
Semi major axis: 13621 km
RCS: 12.474 m2 (large)
Launch date: September 11, 1981
Source: Commonwealth of Independent States (former USSR) (CIS)
Launch site: PLESETSK MISSILE AND SPACE COMPLEX (PKMTR)
aabbcc
Your satellite tracking list
Your tracking list is empty




NASA's NSSDC Master Catalog

Two Line Element Set (TLE):
1 12818U 81088A   18142.39863149  .00000023  00000-0  00000+0 0  9998
2 12818  63.2372 130.5433 4626761 212.5557 341.9966  5.46075882731838
Source of the keplerian elements: AFSPC